Location: Chmeln�
(49.6483°N, 14.9871°E)
Time: 05:40:50
(UTC+00:00)

Lacrosse 4 Rocket - Pass Details

Date: 18 September 2020
Orbit: 543 x 615 km, 68.0° (Epoch: 22 October)

Event Time Altitude Azimuth Distance (km) Brightness Sun altitude
Rises 19:20:17 0° 333° (NNW) 2,717 5.8 -21.5°
Reaches altitude 10° 19:23:12 10° 355° (N) 1,822 4.4 -21.9°
Maximum altitude 19:25:49 16° 35° (NE) 1,462 3.4 -22.3°
Enters shadow 19:25:51 16° 36° (NE) 1,462 3.4 -22.3°
